Weather History for Wilmington, OH

Change the Weather History Date:

Tuesday, February 5, 2013

  Actual Average (KDAY) Record (KDAY)
Temperature  
Mean Temperature 30 °F 29 °F  
Max Temperature 35 °F 36 °F 65 °F (1927)
Min Temperature 26 °F 21 °F -9 °F (1979)
Degree Days  
Heating Degree Days 34 36  
Month to date heating degree days 182  
Since 1 July heating degree days 3505  
Cooling Degree Days 0 0  
Month to date cooling degree days 0  
Year to date cooling degree days 0  
Moisture  
Dew Point 28 °F    
Average Humidity 88    
Maximum Humidity 100    
Minimum Humidity 72    
Precipitation  
Precipitation 0.00 in 0.08 in 1.43 in (1908)
Month to date precipitation 0.41  
Year to date precipitation 3.12  
Snow  
Snow 0.00 in 0.30 in 7.70 in (2010)
Month to date snowfall 1.2  
Since 1 July snowfall 14.6  
Snow Depth -    
Sea Level Pressure  
Sea Level Pressure 29.92 in    
Wind  
Wind Speed 6 mph (WNW)    
Max Wind Speed 16 mph    
Max Gust Speed 23 mph    
Visibility 4 miles    
Events      
T = Trace of Precipitation, MM = Missing Value Source: NWS Daily Summary

Daily Weather History Graph

Daily Weather History Graph

Search for Another Location

Airport:

Trip Planner

Search our weather history database for the weather conditions in past years. The results will help you decide how hot, cold, wet, or windy it might be!

Date:

Astronomy

Feb. 05, 2013 Rise Set
Actual Time 7:38 AM EST 6:00 PM EST
Civil Twilight 7:10 AM EST 6:28 PM EST
Nautical Twilight 6:38 AM EST 7:00 PM EST
Astronomical Twilight 6:07 AM EST 7:32 PM EST
Moon 3:18 AM EST (2/5) 1:17 PM EST (2/5)
Length of Visible Light 11h 18m
Length of Day
10h 22m
Waning Crescent, 27% of the Moon is Illuminated
Feb 5
Waning Crescent
Feb 10
New
Feb 17
First Quarter
Feb 25
Full
Mar 4
Last Quarter

Hourly Weather History & Observations

Time (EST) Temp. Windchill Dew Point Humidity Pressure Visibility Wind Dir Wind Speed Gust Speed Precip Events Conditions
12:14 AM 33.8 °F 29.6 °F 32.0 °F 93% 29.84 in 3.0 mi SW 4.6 mph - N/A   Overcast
12:22 AM 33.8 °F 29.6 °F 32.0 °F 93% 29.84 in 3.0 mi SW 4.6 mph - N/A   Overcast
12:45 AM 33.8 °F 29.6 °F 33.8 °F 100% 29.83 in 4.0 mi WSW 4.6 mph - N/A   Overcast
12:54 AM 33.1 °F 27.7 °F 32.0 °F 96% 29.92 in 4.0 mi SW 5.8 mph - N/A   Overcast
1:54 AM 33.1 °F 26.9 °F 32.0 °F 96% 29.92 in 4.0 mi WSW 6.9 mph - N/A   Overcast
2:54 AM 33.1 °F 30.0 °F 33.1 °F 100% 29.92 in 4.0 mi West 3.5 mph - N/A   Overcast
3:12 AM 33.8 °F - 33.8 °F 100% 29.84 in 3.0 mi Calm Calm - N/A   Overcast
3:54 AM 32.0 °F 24.8 °F 30.9 °F 96% 29.91 in 3.0 mi North 8.1 mph - N/A   Overcast
4:13 AM 30.2 °F 20.8 °F 30.2 °F 100% 29.84 in 2.5 mi North 11.5 mph - N/A   Overcast
4:29 AM 30.2 °F 22.6 °F 28.4 °F 93% 29.85 in 1.8 mi North 8.1 mph - N/A   Overcast
4:54 AM 30.0 °F 21.7 °F 28.9 °F 96% 29.95 in 2.0 mi NNW 9.2 mph - N/A   Overcast
5:10 AM 30.2 °F 24.3 °F 28.4 °F 93% 29.86 in 3.0 mi North 5.8 mph - N/A   Overcast
5:21 AM 30.2 °F 25.4 °F 28.4 °F 93% 29.86 in 2.5 mi North 4.6 mph - N/A   Overcast
5:42 AM 28.4 °F 22.2 °F 26.6 °F 93% 29.86 in 3.0 mi NNW 5.8 mph - N/A   Overcast
5:54 AM 28.9 °F 22.8 °F 27.0 °F 92% 29.93 in 3.0 mi North 5.8 mph - N/A   Overcast
7:36 AM 28.4 °F 23.3 °F 24.8 °F 86% 29.87 in 4.0 mi NNW 4.6 mph - N/A   Overcast
7:45 AM 28.4 °F 21.2 °F 24.8 °F 86% 29.87 in 4.0 mi NNW 6.9 mph - N/A   Overcast
7:54 AM 28.0 °F 21.7 °F 25.0 °F 88% 29.96 in 3.0 mi NW 5.8 mph - N/A   Overcast
8:11 AM 26.6 °F 19.1 °F 24.8 °F 93% 29.89 in 2.5 mi NW 6.9 mph - N/A   Overcast
9:08 AM 26.6 °F 18.2 °F 24.8 °F 93% 29.91 in 2.0 mi NW 8.1 mph - N/A   Overcast
9:54 AM 28.0 °F 20.8 °F 24.1 °F 85% 29.99 in 2.5 mi WNW 6.9 mph - N/A   Overcast
10:02 AM 28.4 °F 22.2 °F 24.8 °F 86% 29.90 in 3.0 mi NW 5.8 mph - N/A   Overcast
10:11 AM 28.4 °F 23.3 °F 24.8 °F 86% 29.90 in 2.5 mi NW 4.6 mph - N/A   Overcast
10:30 AM 28.4 °F 20.4 °F 24.8 °F 86% 29.91 in 2.5 mi NNW 8.1 mph - N/A   Overcast
10:54 AM 28.0 °F 21.7 °F 24.1 °F 85% 29.99 in 2.5 mi NNW 5.8 mph - N/A   Overcast
11:06 AM 28.4 °F 22.2 °F 24.8 °F 86% 29.92 in 3.0 mi NW 5.8 mph - N/A   Haze
11:54 AM 30.0 °F 25.2 °F 24.1 °F 79% 30.00 in 3.0 mi NW 4.6 mph - N/A   Haze
12:08 PM 32.0 °F - 24.8 °F 75% 29.92 in 4.0 mi Calm Calm - N/A   Haze
12:54 PM 30.9 °F 25.2 °F 23.0 °F 72% 29.97 in 6.0 mi WSW 5.8 mph - N/A   Haze
1:54 PM 30.9 °F 22.2 °F 24.1 °F 76% 29.95 in 5.0 mi SW 10.4 mph - N/A   Haze
2:54 PM 30.9 °F 22.2 °F 25.0 °F 79% 29.94 in 4.0 mi SW 10.4 mph - N/A   Haze
3:54 PM 33.1 °F 26.9 °F 27.0 °F 78% 29.93 in 4.0 mi SSW 6.9 mph - N/A   Haze
4:54 PM 33.1 °F 24.9 °F 28.0 °F 82% 29.90 in 4.0 mi South 10.4 mph - N/A   Haze
5:54 PM 33.1 °F 27.7 °F 28.9 °F 85% 29.92 in 5.0 mi SSW 5.8 mph - N/A   Overcast
6:54 PM 33.1 °F 28.7 °F 28.9 °F 85% 29.94 in 6.0 mi West 4.6 mph - N/A   Overcast
7:54 PM 34.0 °F 28.8 °F 28.9 °F 82% 29.97 in 6.0 mi WNW 5.8 mph - N/A   Haze
8:54 PM 34.0 °F 23.8 °F 28.9 °F 82% 30.00 in 6.0 mi WNW 16.1 mph 21.9 mph 0.00 in   Haze
9:54 PM 35.1 °F 26.9 °F 28.9 °F 78% 30.01 in 7.0 mi West 11.5 mph - N/A   Overcast
10:54 PM 35.1 °F 27.4 °F 28.9 °F 78% 30.03 in 7.0 mi West 10.4 mph - N/A   Overcast
11:54 PM 35.1 °F 25.9 °F 28.9 °F 78% 30.05 in 7.0 mi WNW 13.8 mph 23.0 mph N/A   Overcast